This is the latest recevied weather packets stored in our database for station/object N0FDH. If no packets are shown the sender has not sent any weather packets the latest 10 day(s).
| Time | Temp. | Humidity | Pressure | Rain* | Wind** | Luminosity | Snow |
|---|---|---|---|---|---|---|---|
| 1777849236 | 18.89° C | 30% | 1004.2 hPa | 0 mm | - | 75 W/m² | - |
| 1777848932 | 18.89° C | 30% | 1004 hPa | 0 mm | - | 125 W/m² | - |
| 1777848627 | 18.89° C | 29% | 1004 hPa | 0 mm | - | 46 W/m² | - |
| 1777848325 | 18.89° C | 31% | 1003.9 hPa | 0 mm | - | 150 W/m² | - |
| 1777848023 | 18.89° C | 29% | 1004.1 hPa | 0 mm | - | 68 W/m² | - |
| 1777847720 | 18.89° C | 32% | 1004 hPa | 0 mm | - | 135 W/m² | - |
| 1777847416 | 18.89° C | 30% | 1004.1 hPa | 0 mm | - | 146 W/m² | - |
| 1777847114 | 19.44° C | 28% | 1004 hPa | 0 mm | - | 172 W/m² | - |
| 1777846812 | 19.44° C | 28% | 1004 hPa | 0 mm | - | 121 W/m² | - |
| 1777846510 | 19.44° C | 28% | 1003.8 hPa | 0 mm | - | 235 W/m² | - |
| 1777846207 | 20° C | 27% | 1003.9 hPa | 0 mm | - | 274 W/m² | - |
| 1777845903 | 20° C | 30% | 1004 hPa | 0 mm | - | 349 W/m² | - |
| 1777845600 | 19.44° C | 28% | 1003.9 hPa | 0 mm | - | 324 W/m² | - |
| 1777845297 | 19.44° C | 29% | 1003.9 hPa | 0 mm | - | 308 W/m² | - |
| 1777844994 | 19.44° C | 27% | 1004 hPa | 0 mm | - | 371 W/m² | - |
| 1777844692 | 19.44° C | 27% | 1003.9 hPa | 0 mm | - | 368 W/m² | - |
| 1777844389 | 19.44° C | 26% | 1004.1 hPa | 0 mm | - | 375 W/m² | - |
| 1777844088 | 19.44° C | 28% | 1004.1 hPa | 0 mm | - | 368 W/m² | - |
| 1777843783 | 20° C | 26% | 1004.2 hPa | 0 mm | - | 389 W/m² | - |
| 1777843481 | 19.44° C | 27% | 1004.2 hPa | 0 mm | - | 420 W/m² | - |
| 1777843178 | 18.89° C | 25% | 1004.3 hPa | 0 mm | - | 435 W/m² | - |
| 1777842875 | 19.44° C | 29% | 1004.1 hPa | 0 mm | - | 430 W/m² | - |
| 1777842570 | 19.44° C | 27% | 1004.1 hPa | 0 mm | - | 467 W/m² | - |
| 1777842268 | 19.44° C | 26% | 1004.3 hPa | 0 mm | - | 479 W/m² | - |
| 1777841962 | 19.44° C | 23% | 1004.3 hPa | 0 mm | - | 491 W/m² | - |
* Rain latest hour (hover to see other rain measurements)
** Current wind speed in m/s (hover to see current wind gust speed)